Погода в Воропунях

Россия / Тверская область     56°44′14″N   34°42′21″E
темп.,
°C
ветер,
м/с
пор.,
м/с
влажн.,
%
обл.,
%
осадки,
мм/ч
давл.,
гПа
погр.,
м
4 декабря, сб
сб400:00−3юз5119089 0.1 9971045
03:00−3юз61391100 0.4 9971211
06:00−5з6128893 0.6 998858
09:00−5з51386100 0.7 1001868
12:00−5з51284100 0.0 1004844
15:00−5з51184100 0.1 1006854
18:00−6з388697 0.0 1008390
21:00−9зюз119633 0.0 101010
5 декабря, вс
вс500:00−8з019599 0.0 101137
03:00−6всв1295100 0.5 1011139
06:00−6всв2495100 0.4 1011193
09:00−6всв2595100 1.1 1012228
12:00−6всв3491100 0.4 1014286
15:00−7св359392 0.6 1015286
18:00−9св369599 0.1 1017248
21:00−10св3694100 0.3 1018252
6 декабря, пн
пн600:00−11св3694100 0.3 1020256
03:00−11св369485 0.5 1020246
06:00−12всв3694100 0.1 1020251
09:00−11всв3593100 0.3 1021247
12:00−10в2491100 0.3 1021262
15:00−8всв2492100 0.4 1020255
18:00−8всв2695100 0.5 1019204
21:00−6в2596100 1.1 1018147
7 декабря, вт
вт700:00−4вюв2697100 0.4 1016256
03:00−4вюв2697100 0.9 1015266
06:00−5в249892 0.5 1013146
09:00−5ссв1198100 0.8 101231
12:00−4ссз129573 0.1 1012140
15:00−5сз2596100 0.1 1012161
18:00−8сз269888 0.0 1014117
21:00−10сз379688 0.1 1015159
8 декабря, ср
ср800:00−13сз279698 0.0 1016140
03:00−14сз289614 0.0 1017173
06:00−16сз27975 0.0 1018133
09:00−16сз269752 0.0 1019114
12:00−12с259160 0.0 1020196
15:00−12с26945 0.0 1020224
18:00−14с389750 0.0 1021180
21:00−15с139969 0.0 102269